Wind_Speed
55 54 54 54 53 52 51 50 48 47 46 43 41 38 35 35 36 39 39 36 34 32 28 27 29 32 33 33 33 34 36 33 33 38 42 45 49 50 51 52 51 49 49 49 48 47 47 45 44 43 41 40 39 38 37 35 35 34 33 33 31 30 29 28 26 26 25 24 22 21 20 19 19 19 18 18 18 18 18 18 17 16 14 14 13 12 12 12
55 55 54 54 53 52 51 50 48 47 46 43 41 38 37 38 38 38 39 38 37 33 27 26 27 31 34 34 34 35 35 36 34 35 39 42 46 49 52 54 52 51 50 49 48 47 47 46 44 43 42 40 39 38 37 36 35 34 33 33 32 30 29 28 27 26 25 24 23 22 21 19 19 19 18 18 17 17 17 17 16 15 14 13 13 12 11 11
55 55 54 54 54 53 51 49 48 47 46 42 41 39 38 40 40 39 39 41 40 35 31 31 30 32 35 35 36 36 35 35 34 33 36 39 43 45 50 56 54 53 53 50 49 49 48 47 45 43 42 41 40 39 37 36 35 34 34 33 32 31 29 28 27 26 25 25 24 23 22 20 19 19 19 18 17 16 15 15 15 15 14 13 12 11 10 9
56 55 54 54 54 53 51 50 49 47 45 42 41 40 38 39 39 40 40 41 43 39 36 37 36 36 37 36 37 37 35 34 34 34 35 36 40 42 48 57 55 54 54 52 51 50 49 49 47 45 43 42 41 40 38 37 35 35 35 34 32 31 30 29 27 26 25 25 24 23 22 21 20 19 18 18 17 16 16 15 15 14 14 13 12 11 10 9
56 55 54 54 53 53 52 50 48 46 44 43 42 40 38 38 38 40 40 41 43 42 41 41 42 42 41 39 39 39 37 34 32 34 35 35 39 41 48 57 56 54 54 52 51 51 50 48 47 46 45 44 42 41 39 37 36 35 35 34 33 32 30 29 27 26 25 25 25 24 23 22 21 20 19 18 18 17 16 15 14 14 13 13 12 11 10 9
57 56 54 54 54 53 52 50 47 45 44 44 42 40 38 38 38 39 39 40 41 42 42 42 43 42 41 41 41 41 38 35 32 34 35 35 38 40 49 58 57 55 54 52 52 51 50 48 47 46 45 44 42 40 38 36 36 35 35 35 33 32 31 29 28 26 26 25 25 24 23 22 21 21 20 19 18 17 16 15 15 14 13 12 12 12 11 10
58 56 55 54 54 54 52 49 46 45 45 44 42 40 38 37 37 38 38 39 39 40 39 39 41 40 39 39 39 39 37 35 33 35 36 36 38 42 51 57 57 56 55 53 52 50 49 48 47 45 44 43 42 40 39 37 36 36 36 35 34 32 31 30 29 27 27 26 25 24 23 22 21 20 20 19 18 17 17 17 16 15 14 13 13 12 12 11
58 57 55 55 55 54 52 49 46 46 45 44 42 40 38 37 37 37 38 38 38 38 38 37 38 38 38 38 38 38 36 34 35 37 37 37 39 44 52 56 57 57 55 53 52 50 49 48 47 46 44 43 42 41 40 38 38 37 36 36 34 33 31 30 29 28 28 27 26 25 24 22 21 20 19 19 18 18 18 18 17 16 15 14 14 13 12 12
58 57 56 55 55 54 52 49 46 45 45 44 42 40 38 37 37 37 37 37 37 36 36 37 37 37 38 37 38 37 34 34 37 39 39 38 42 48 53 56 57 56 54 53 53 51 50 48 47 46 45 43 43 42 41 40 39 38 37 36 35 34 32 31 30 29 28 28 27 26 24 23 22 20 19 19 19 19 18 17 16 16 15 14 14 14 13 12
59 58 56 55 55 54 52 49 46 45 45 44 42 40 39 38 37 37 37 37 36 35 34 35 37 37 37 36 37 34 31 36 39 41 41 41 45 51 54 55 56 54 53 53 53 51 50 49 48 47 46 45 44 44 43 42 40 39 39 37 36 35 33 31 30 29 28 28 27 26 25 24 23 21 20 20 19 18 17 16 16 15 14 14 14 14 13 13
60 58 56 56 56 55 53 50 47 45 44 43 42 41 39 38 38 37 38 37 36 35 34 35 36 37 37 35 35 31 31 37 40 43 44 43 48 53 54 55 55 54 53 53 52 51 51 50 50 49 47 46 45 44 43 42 41 40 39 38 37 35 33 32 30 29 28 28 27 26 25 24 22 22 20 20 19 18 18 17 17 16 15 15 14 14 14 14
59 57 56 57 57 56 53 50 47 45 44 43 42 41 40 39 39 38 38 38 36 35 35 35 36 37 37 35 33 30 33 38 41 46 46 45 51 54 55 55 54 53 53 52 52 52 52 51 50 49 48 47 46 45 44 43 42 41 40 38 37 35 33 32 30 29 28 27 26 25 24 23 22 22 21 20 20 19 19 19 18 16 16 15 15 15 15 14
58 57 57 58 57 55 52 49 47 46 44 43 43 42 41 40 39 39 39 38 37 36 36 36 36 37 37 35 33 32 34 38 42 47 47 48 52 53 54 54 53 53 52 53 53 53 53 53 51 50 49 48 47 46 45 44 43 42 41 39 38 36 34 32 31 29 28 27 26 25 23 22 22 21 20 20 20 20 20 19 18 17 16 15 15 15 15 15
58 58 58 58 58 56 53 50 48 47 45 45 44 42 41 41 41 40 40 39 38 37 37 37 37 38 38 36 34 34 36 38 44 48 49 50 51 52 53 53 52 52 52 52 54 54 54 53 53 52 51 50 48 47 46 45 44 42 41 40 38 37 34 31 30 29 28 27 25 23 22 21 22 21 20 20 21 20 20 19 18 17 16 16 16 15 15 16
59 59 59 59 59 57 54 50 48 48 47 45 44 43 42 42 41 41 40 39 38 38 37 37 38 39 39 37 36 36 37 40 46 49 50 50 50 50 51 51 51 52 52 53 54 54 54 54 53 53 52 51 50 49 47 46 44 43 42 41 38 36 33 31 31 29 28 26 25 23 21 22 22 21 20 20 20 20 20 19 19 18 17 17 17 16 17 18
60 60 59 59 59 56 53 50 48 47 46 45 44 44 43 43 43 42 41 40 39 38 38 39 39 40 39 38 37 37 37 42 47 50 51 51 49 49 50 51 51 52 53 53 54 55 55 54 54 54 52 51 51 49 48 47 46 45 43 41 38 35 33 32 31 29 28 27 25 23 21 22 22 21 21 20 20 21 21 20 20 19 19 18 18 18 18 19
60 60 59 59 58 56 52 49 47 46 45 45 45 45 44 44 43 42 41 40 40 39 38 40 41 40 40 38 38 37 38 44 49 51 52 51 48 47 48 50 51 52 53 53 54 55 56 55 54 54 53 51 51 50 49 49 48 46 44 41 38 35 33 32 31 29 28 27 26 24 22 22 22 21 21 20 20 22 22 22 21 21 20 20 20 20 20 20
59 59 59 59 58 56 52 48 47 45 45 46 46 46 45 45 44 43 42 41 40 39 40 41 41 40 39 38 38 38 40 47 51 52 54 51 48 46 47 49 51 52 53 54 55 56 56 56 55 54 53 52 52 52 52 49 46 43 41 38 35 34 33 31 30 30 29 29 28 26 23 22 23 22 22 21 21 22 22 23 22 23 22 22 21 22 22 22
59 59 58 59 58 56 52 48 47 46 45 46 45 45 45 44 44 42 41 40 39 39 38 37 35 36 37 37 40 41 44 51 53 54 55 52 48 46 46 48 50 52 53 53 54 56 56 56 56 56 55 54 53 52 50 46 43 40 39 37 36 35 35 34 33 33 32 31 29 27 24 23 24 23 23 22 22 21 22 23 24 25 24 24 23 23 23 23
59 59 58 58 58 56 53 49 48 47 46 45 44 44 44 44 43 42 41 39 38 36 34 34 34 35 37 38 41 43 47 53 55 54 55 53 49 45 45 47 49 52 53 53 54 55 56 56 56 55 53 51 49 48 47 45 43 42 42 41 40 40 39 37 37 35 34 32 30 27 25 24 24 24 24 23 22 21 22 24 25 26 26 26 25 24 24 25
60 60 59 59 57 56 54 51 49 47 45 44 42 42 41 40 40 38 38 38 38 36 36 37 37 37 37 38 40 43 49 55 55 54 53 52 49 46 44 46 48 50 52 52 54 54 55 56 55 52 50 48 47 46 46 45 44 44 43 42 42 41 40 39 38 36 34 33 31 29 27 24 24 25 25 23 21 22 23 24 25 27 28 27 26 26 26 27
61 61 61 59 58 57 55 52 50 47 45 43 42 41 39 38 36 33 33 33 35 36 38 40 40 38 38 39 41 44 51 56 56 53 52 51 49 47 45 45 46 47 49 51 52 54 55 55 53 50 49 48 48 47 47 47 46 45 44 43 43 42 40 39 38 37 36 35 33 31 28 26 25 26 26 24 22 23 25 25 25 27 28 29 29 28 28 28
63 63 62 61 59 58 56 53 50 47 45 43 41 40 40 38 36 35 34 31 31 34 37 39 40 39 38 40 42 46 53 57 55 52 51 49 48 46 45 44 44 45 47 49 50 51 53 53 51 50 49 49 49 48 48 47 47 46 45 44 43 42 40 40 39 38 37 37 35 33 31 28 27 27 27 26 24 23 25 26 26 28 29 30 31 30 29 29
64 64 63 62 61 59 57 55 51 48 45 43 41 40 40 39 37 37 37 36 35 35 36 37 38 39 39 40 43 48 55 57 54 51 48 47 45 45 45 43 43 43 44 46 47 48 49 48 47 47 47 48 48 48 48 47 47 47 46 45 43 42 42 41 40 40 39 38 36 34 33 30 29 28 28 28 26 25 26 27 27 28 29 30 31 31 31 30
65 65 64 63 62 60 58 56 52 49 46 44 43 41 40 39 38 37 38 38 38 38 38 38 37 38 39 41 43 48 55 57 54 51 48 46 44 44 44 43 43 42 42 43 45 47 48 46 46 46 46 47 48 48 47 47 47 46 46 45 44 43 43 42 41 40 40 39 38 36 36 33 30 29 29 28 28 27 27 27 28 29 29 30 31 32 32 31
66 65 64 64 63 61 60 57 53 50 47 45 43 42 41 40 38 38 38 38 39 39 39 39 39 39 40 41 43 48 56 60 57 53 51 49 47 46 45 45 44 43 42 42 44 47 47 46 46 46 46 47 48 48 47 47 47 47 46 45 45 44 43 42 42 41 42 41 40 39 38 36 32 30 30 29 28 29 28 28 29 29 30 31 31 32 32 32
67 66 65 64 63 62 60 57 54 51 48 46 45 43 42 41 40 39 39 40 41 40 39 39 39 39 40 42 43 46 54 61 61 58 56 53 52 50 49 48 47 45 44 44 46 47 46 45 46 46 47 48 48 48 47 47 47 47 45 44 44 44 44 44 44 44 44 43 42 41 40 39 35 31 30 29 29 30 30 29 29 29 30 31 32 32 33 33
69 68 67 66 63 62 59 55 53 51 49 47 46 45 44 42 41 41 42 43 43 42 40 39 38 39 40 41 43 44 50 58 62 62 60 57 55 54 52 51 50 47 45 45 46 46 45 44 44 45 46 47 47 46 45 46 46 46 44 44 45 45 46 46 46 46 45 45 44 42 40 41 38 32 31 31 30 31 31 30 29 29 29 31 32 33 33 34
70 70 68 67 64 62 59 55 52 50 49 48 46 46 45 44 43 42 43 44 44 42 41 40 39 39 40 41 42 43 46 54 62 63 61 59 57 55 53 52 51 49 47 46 46 44 44 42 42 42 43 44 44 44 44 45 46 46 45 46 46 47 48 48 48 48 47 47 46 43 41 42 41 35 32 32 32 31 32 32 30 29 30 31 32 33 34 35
69 69 67 65 63 62 60 58 55 53 50 49 47 46 46 45 45 45 45 46 44 42 41 41 39 38 39 40 41 43 44 50 59 63 63 61 59 56 54 53 51 50 49 49 48 47 45 43 43 43 43 44 44 45 46 46 47 48 47 47 48 48 49 50 50 49 49 50 47 45 43 42 42 38 33 33 33 32 33 33 32 31 31 31 32 33 34 35
66 66 66 63 62 61 60 59 58 56 53 52 50 49 48 47 46 47 48 46 44 44 42 41 39 38 37 36 38 42 44 47 55 63 65 64 62 59 56 55 54 53 52 52 52 50 48 46 46 46 45 45 45 46 47 48 49 49 48 48 48 49 50 50 51 50 51 51 48 45 44 44 44 40 35 34 34 34 34 33 33 33 32 33 33 34 34 35
64 65 64 63 61 60 59 58 57 56 55 54 53 52 51 50 50 50 48 46 45 45 42 40 39 37 36 36 38 41 44 45 50 59 64 65 64 62 59 57 56 56 57 57 56 54 51 50 49 49 48 47 47 47 48 49 50 50 49 48 48 49 50 51 51 51 51 50 48 46 45 45 45 41 38 37 36 35 35 34 34 34 34 34 34 34 35 35
63 64 64 63 62 61 60 58 57 56 55 55 54 53 52 53 54 52 49 49 47 45 42 40 39 37 37 38 40 41 43 44 46 53 61 64 65 64 60 57 56 55 56 57 57 56 54 53 53 52 51 50 49 49 49 49 49 49 49 49 48 49 50 50 50 50 50 49 48 47 46 46 45 42 41 40 38 37 35 34 34 34 35 35 35 35 35 35
61 62 63 63 62 61 60 59 59 58 56 56 55 55 54 55 55 52 51 50 48 45 44 42 40 40 39 39 40 40 41 43 45 49 57 61 64 65 63 59 57 56 55 54 54 54 53 54 54 54 53 52 50 50 49 48 47 47 47 47 48 48 48 49 48 48 48 48 48 47 48 48 46 43 42 41 40 38 36 35 35 35 35 36 36 36 36 36
60 61 62 62 61 61 60 60 60 59 58 58 57 57 57 56 54 53 53 50 48 47 45 42 41 41 41 40 41 42 41 42 43 47 54 59 61 63 64 62 59 58 58 57 56 55 53 53 52 52 52 51 50 50 49 48 48 49 49 49 49 49 49 49 49 48 48 48 48 48 48 47 45 44 44 42 40 39 38 37 35 35 36 37 37 37 37 37
60 62 62 62 62 61 61 61 60 59 59 58 59 59 57 54 53 53 52 50 48 48 47 45 44 43 43 42 42 43 43 42 42 45 51 57 60 60 61 62 60 59 59 58 58 57 55 54 52 50 50 50 50 49 49 49 50 50 51 51 50 49 49 48 48 48 48 49 49 49 48 46 45 45 45 43 41 39 38 38 37 36 37 37 38 38 38 37
63 63 64 64 64 63 63 62 62 60 59 59 60 58 55 53 54 53 51 49 49 49 48 46 45 44 42 42 42 43 44 44 44 44 48 55 60 60 59 60 60 59 58 57 56 54 52 52 51 49 48 48 48 47 47 48 49 49 49 48 47 47 47 47 47 48 49 50 51 50 48 46 45 46 45 43 41 40 38 38 37 37 37 37 37 38 38 38
66 65 66 65 65 65 64 63 62 61 60 61 60 56 53 54 55 53 51 50 51 50 49 47 46 44 43 42 42 42 44 46 46 46 47 52 58 59 59 59 59 59 59 56 54 52 49 48 48 48 47 47 46 46 46 47 47 47 47 46 44 45 46 46 47 48 48 49 50 49 48 47 46 44 42 41 41 39 39 38 37 36 37 38 38 39 39 38
66 66 67 66 65 65 65 63 62 61 61 61 58 56 54 54 53 53 52 53 53 52 50 49 47 44 43 42 41 42 44 45 46 46 47 49 53 58 59 58 58 60 60 57 54 52 49 48 48 48 47 47 47 47 48 47 47 47 47 46 45 45 45 44 45 45 46 46 47 48 49 48 46 42 41 40 40 40 39 38 37 36 37 37 38 39 39 39
66 67 67 66 66 65 65 64 63 63 62 59 56 56 56 55 54 54 55 55 54 53 51 49 47 45 44 43 42 42 44 45 45 46 47 47 48 53 58 59 58 60 60 57 54 52 50 49 49 49 48 48 49 49 48 47 46 46 46 46 45 45 45 45 44 45 45 46 47 49 51 50 45 41 40 40 40 40 39 38 37 37 36 36 37 37 38 39
66 69 69 67 67 67 66 66 65 63 61 58 57 57 57 56 56 56 56 56 54 52 50 49 48 46 45 44 43 43 44 46 47 46 46 47 46 48 53 57 59 61 61 58 56 54 52 51 50 51 50 50 49 48 47 46 45 44 44 44 43 43 43 43 44 45 45 46 48 50 52 50 44 41 41 40 40 40 39 38 38 37 36 35 36 36 37 38
64 67 69 68 68 68 68 67 65 61 59 58 58 58 58 58 58 57 57 56 55 53 51 50 50 48 46 45 44 44 44 46 48 48 46 47 46 45 47 53 58 60 60 58 55 53 51 51 50 51 50 49 49 48 47 46 45 44 44 43 43 43 44 44 46 46 46 48 48 48 51 50 44 41 41 41 40 40 39 38 37 37 36 36 36 36 36 37
63 63 66 67 68 67 67 67 64 62 61 60 59 59 60 60 59 59 58 57 56 54 52 52 51 49 48 46 45 45 44 46 49 49 47 46 46 45 45 50 57 61 59 57 56 53 51 50 50 50 50 49 49 48 47 46 45 45 45 44 44 44 44 45 47 46 46 48 47 47 51 50 43 40 41 41 41 40 39 38 38 37 36 35 35 35 36 37
64 62 64 67 68 69 68 67 65 63 63 62 62 61 61 61 61 60 59 58 56 55 53 52 51 50 48 46 45 45 45 46 48 50 49 48 47 46 46 48 55 62 62 59 58 56 54 54 53 52 52 52 51 51 51 50 49 48 47 46 45 45 45 45 45 45 46 46 45 47 49 47 41 39 42 42 41 40 40 39 38 37 37 36 36 37 37 38
65 62 63 66 68 69 68 66 65 64 64 64 64 64 63 63 63 62 60 59 57 55 53 52 51 50 49 47 46 46 45 45 46 49 51 51 49 48 48 48 52 60 64 63 60 59 58 58 57 56 56 56 56 56 55 53 51 50 48 47 46 45 44 44 44 45 45 44 44 45 45 42 39 39 42 43 42 41 40 39 39 38 39 39 39 40 40 41
62 60 60 62 64 65 65 66 67 67 66 64 64 65 65 64 63 62 61 60 58 55 54 53 52 51 50 48 47 46 45 44 46 48 51 53 52 51 50 49 50 56 63 66 65 63 63 62 62 60 60 60 58 56 54 51 50 49 47 45 44 44 43 43 44 45 44 42 44 43 40 40 40 40 42 43 42 41 40 40 40 41 41 41 42 43 43 43
59 58 56 57 60 61 62 64 67 67 67 66 65 65 65 64 62 61 60 58 56 55 55 55 54 52 50 48 48 47 45 44 45 47 50 53 54 53 52 51 50 52 58 65 68 68 67 67 67 66 63 62 60 58 56 54 53 51 49 47 46 44 44 45 46 45 43 44 47 43 39 41 42 41 41 42 42 42 42 42 43 43 44 44 45 45 44 44
60 59 56 55 55 57 58 60 62 64 65 66 66 66 66 64 61 59 57 56 55 54 55 55 53 51 50 49 49 49 47 45 45 46 49 53 56 56 54 53 53 52 53 59 65 69 70 70 69 68 67 64 63 61 60 59 57 55 54 52 50 49 48 48 48 47 46 49 49 44 43 45 45 43 43 43 44 45 44 44 45 45 46 46 46 46 46 46
58 58 58 57 54 52 53 56 58 61 63 64 66 67 67 65 62 59 56 54 53 53 53 53 51 49 49 50 51 52 51 48 45 44 47 52 56 58 56 55 55 54 53 55 59 64 68 70 70 69 68 67 65 64 63 61 61 60 58 57 55 53 52 52 51 49 49 51 50 47 48 49 47 44 43 44 46 46 46 47 47 47 47 47 48 49 49 50
52 53 55 57 57 54 53 55 56 59 61 63 64 65 66 65 63 60 58 55 53 52 52 51 49 49 49 50 52 52 51 48 45 44 47 52 56 58 58 57 55 54 54 54 55 58 61 64 67 69 69 69 68 66 65 65 64 63 63 61 60 58 57 56 54 52 53 54 51 49 51 51 47 44 43 45 47 47 48 49 49 49 50 50 51 52 53 53
50 50 50 52 55 55 56 57 57 58 60 62 63 63 63 62 61 60 59 56 54 52 50 49 48 48 50 51 52 52 49 47 46 47 49 53 56 57 57 57 55 54 53 53 54 55 56 57 60 62 65 68 69 68 68 69 68 69 68 66 64 63 61 60 58 56 56 54 51 51 53 50 46 44 44 46 47 48 50 51 52 52 53 54 55 56 56 56
52 52 50 50 52 53 54 57 58 59 60 61 61 62 61 60 60 60 59 57 55 53 51 50 49 49 50 51 50 49 48 47 47 48 50 53 56 58 58 58 57 55 54 53 53 54 55 55 56 56 59 61 63 64 65 66 69 72 72 68 66 65 64 62 61 59 57 56 54 54 53 49 47 47 47 48 50 51 52 53 54 55 56 57 58 58 59 59
Wind_Direction
209 210 209 210 210 209 211 212 213 214 214 213 212 211 206 205 209 210 206 202 204 205 206 213 219 221 222 221 221 222 220 217 214 211 209 209 206 206 207 204 198 194 194 194 193 193 192 191 190 188 187 185 184 184 184 183 182 181 180 179 180 179 175 174 176 176 175 174 176 179 177 170 165 162 159 156 155 152 149 146 145 145 145 143 139 137 137 137
207 208 207 208 209 209 210 212 213 213 213 212 211 209 203 203 208 211 208 202 203 200 199 213 221 223 221 216 217 219 218 216 214 211 210 210 208 207 207 205 199 192 192 195 193 193 192 191 191 189 187 184 184 185 185 184 183 182 181 181 182 180 177 177 178 178 177 176 177 181 182 179 174 169 166 165 163 161 157 153 151 152 153 151 148 145 145 143
206 207 206 206 207 208 209 211 212 213 213 212 211 208 203 204 207 210 208 202 202 197 198 208 213 220 219 212 213 216 216 215 214 213 211 210 209 209 209 205 198 191 191 193 193 193 192 191 190 189 186 184 185 186 185 185 184 182 181 183 183 181 180 180 180 180 180 178 178 182 185 185 183 178 175 173 172 171 167 164 162 162 162 161 159 157 157 155
204 205 205 205 206 207 208 210 211 212 212 211 211 209 205 204 205 208 207 203 201 197 199 205 209 216 216 211 212 214 216 216 214 215 214 210 208 209 210 203 196 191 190 192 193 193 193 191 189 188 186 185 186 186 185 185 183 182 183 184 184 183 183 182 182 183 183 182 180 182 185 187 188 187 184 182 182 181 178 177 176 174 174 172 171 171 171 171
203 204 204 203 205 206 208 209 211 211 211 211 211 209 206 205 205 207 207 205 203 200 201 205 210 216 216 215 215 217 220 220 217 216 215 211 207 209 208 202 195 190 190 192 193 193 193 191 189 188 186 185 186 186 185 184 183 183 185 185 184 184 184 184 184 186 187 185 183 183 185 188 191 192 193 192 193 191 189 189 189 189 187 186 184 182 186 188
202 204 202 202 203 206 207 209 209 210 211 210 210 209 206 204 205 208 209 207 206 206 205 207 210 214 217 217 218 219 221 223 220 217 216 211 208 208 206 200 194 190 190 192 193 192 193 192 191 188 186 185 186 186 185 184 184 184 186 186 186 186 186 186 186 189 190 189 186 185 186 189 191 193 196 199 200 198 197 197 199 201 200 202 200 195 197 202
202 203 201 200 202 205 207 208 208 209 210 210 209 209 205 204 205 208 210 209 208 209 209 209 211 214 216 217 218 218 219 222 221 219 217 211 209 207 202 197 192 189 190 192 193 193 193 192 191 189 187 186 186 185 185 185 185 186 187 187 188 188 188 188 188 191 193 193 191 188 187 189 193 194 196 202 203 203 205 204 205 207 208 211 212 210 208 212
201 203 201 200 201 203 205 206 207 209 210 209 209 208 205 204 205 209 212 211 210 209 209 211 213 215 216 216 217 216 216 219 219 218 215 210 209 203 197 193 190 189 190 191 192 193 193 192 191 190 188 187 186 186 186 186 187 188 189 189 189 190 191 190 191 192 194 196 195 193 190 191 195 195 197 201 203 206 208 209 210 211 213 216 218 220 219 220
200 202 201 199 200 202 204 205 206 208 209 208 208 206 205 204 205 209 213 214 213 211 210 211 213 216 216 215 215 214 213 216 216 215 211 208 206 199 193 190 188 189 190 191 192 192 193 192 192 191 190 189 188 187 187 188 189 189 191 191 191 192 193 192 193 194 196 198 199 198 194 194 196 196 200 202 204 207 209 211 213 214 217 220 222 224 225 227
200 201 200 199 199 200 203 204 205 206 207 207 206 205 204 204 205 209 213 216 215 213 212 212 213 215 217 215 213 214 214 214 213 212 208 204 201 195 189 187 188 189 190 192 192 192 193 193 193 192 191 191 189 189 189 189 189 189 192 192 193 194 194 194 195 196 199 200 201 201 199 198 198 198 202 206 207 210 211 212 216 218 219 222 225 227 228 230
200 200 199 198 198 200 202 203 203 205 206 205 204 204 204 204 205 208 213 215 216 215 213 213 214 216 218 216 213 216 216 213 212 209 205 200 197 192 188 187 188 189 190 192 193 193 193 194 194 193 192 192 191 191 191 191 190 191 193 193 194 195 195 195 196 198 200 202 203 204 203 202 201 200 203 209 211 212 214 215 217 219 221 224 227 230 232 232
199 199 198 197 198 199 201 201 202 203 203 203 204 204 204 204 205 208 212 215 216 216 214 214 215 217 218 217 216 219 216 212 211 208 202 196 193 190 188 188 189 189 190 192 193 193 193 194 195 194 193 192 192 193 192 192 191 192 194 194 194 195 195 196 197 199 201 203 204 205 206 206 207 205 204 211 214 214 217 218 219 221 223 227 230 234 237 237
197 197 197 197 197 198 200 201 201 202 202 202 204 204 203 204 205 208 212 215 216 216 215 214 215 217 219 218 219 219 214 211 209 206 199 192 190 188 188 189 189 190 191 193 193 193 194 194 195 195 194 194 194 194 193 193 193 193 194 194 194 195 195 196 197 200 202 204 206 207 208 210 215 211 206 213 218 217 220 223 223 224 227 231 234 237 241 243
196 196 196 197 197 198 199 200 200 200 201 202 203 203 203 204 205 208 212 214 216 215 215 214 215 217 218 219 219 217 215 210 206 203 195 189 188 188 189 190 190 191 192 194 194 194 195 195 196 195 195 195 195 195 194 195 195 195 196 195 195 195 195 195 198 201 203 205 207 208 208 213 220 218 213 216 222 223 223 227 228 228 229 233 237 239 242 245
195 195 197 197 196 197 198 198 199 199 199 200 202 202 203 204 206 208 211 215 216 216 215 214 216 218 218 219 218 216 215 209 204 200 192 188 188 189 190 191 191 192 193 194 196 196 196 197 197 197 196 196 196 196 196 196 196 197 197 197 196 196 196 197 199 202 205 206 208 208 206 214 221 222 221 220 223 228 227 229 232 232 232 234 238 241 243 245
194 195 196 196 197 197 197 198 198 199 199 199 200 201 203 204 206 209 211 214 216 216 215 214 216 217 217 218 218 216 215 208 203 199 191 188 189 190 192 192 193 193 194 195 197 198 198 198 198 198 198 198 198 198 198 198 198 198 198 198 197 198 198 200 201 203 206 207 209 208 206 215 221 223 227 224 223 230 231 231 232 234 235 235 237 240 243 244
193 194 196 196 197 197 197 197 198 198 198 198 200 201 202 204 206 208 211 214 215 215 214 214 215 217 217 218 219 218 214 208 203 197 190 188 190 192 194 195 195 195 196 197 198 199 199 199 199 200 200 199 199 199 200 200 199 199 199 199 199 200 201 203 205 205 208 210 212 212 208 215 223 224 228 228 225 229 233 234 234 234 236 236 237 239 241 241
193 194 195 196 197 197 197 197 197 198 198 199 200 201 202 204 206 208 211 213 216 216 214 214 215 216 216 217 218 217 212 206 201 196 191 189 191 194 196 197 197 197 198 199 199 200 201 200 200 201 201 201 200 200 201 201 201 202 202 202 202 203 204 206 208 210 212 214 215 215 212 216 225 227 230 231 229 228 232 236 237 237 236 235 237 239 241 241
193 194 195 196 197 197 197 197 197 197 198 200 201 201 202 204 206 208 211 214 217 218 217 218 218 217 217 216 217 215 208 203 200 195 192 190 192 195 197 198 199 199 200 200 201 202 202 202 202 201 201 201 202 203 204 203 204 205 205 205 205 206 207 208 210 213 215 217 218 217 215 219 226 230 232 234 233 231 231 235 238 239 238 236 237 239 242 243
193 193 195 196 196 196 196 196 197 198 199 201 202 202 203 204 206 207 210 214 218 220 220 220 220 218 217 217 217 213 206 202 199 195 193 192 193 196 199 200 200 201 201 201 203 204 204 204 204 203 203 204 206 207 208 207 207 207 206 206 206 207 208 209 211 214 217 219 220 220 219 222 228 232 234 236 237 237 234 234 237 240 241 240 238 239 242 243
193 194 195 196 197 196 196 197 198 198 199 201 203 204 205 207 210 212 214 215 218 218 216 215 217 217 216 217 217 214 206 201 198 195 194 194 195 198 200 201 202 202 203 203 204 204 206 206 204 204 206 209 210 210 210 210 209 209 209 209 209 210 211 212 214 217 219 222 223 224 222 224 231 236 237 238 239 241 239 236 236 239 242 242 241 240 241 244
193 194 195 196 197 197 197 197 197 198 199 200 202 203 205 207 209 213 219 222 222 219 213 211 213 215 215 216 216 212 205 200 198 196 195 195 197 199 201 201 202 203 204 206 206 206 206 205 205 206 208 210 211 211 211 211 211 211 212 212 212 213 214 215 217 219 222 224 225 227 225 225 231 238 240 240 238 240 243 241 238 238 241 242 242 241 242 244
192 194 195 195 197 198 198 198 198 198 200 201 201 202 204 205 205 206 210 216 220 220 217 213 213 213 213 215 215 210 204 200 198 198 197 197 199 201 202 203 204 204 205 206 208 209 208 207 207 208 209 210 211 212 212 213 213 213 214 214 215 216 218 219 221 223 225 227 228 229 228 227 231 237 241 242 239 238 243 245 243 241 240 241 243 243 244 245
193 194 195 196 197 198 198 198 198 198 199 200 202 203 204 204 204 204 206 209 211 214 217 217 216 215 213 214 214 208 203 200 199 199 199 200 201 203 203 204 206 206 206 206 208 209 210 210 211 210 210 211 212 212 213 214 215 216 216 217 218 220 221 222 224 226 228 230 230 232 232 230 232 238 241 244 243 240 242 245 246 245 242 241 243 245 246 246
193 194 195 197 198 199 199 199 198 198 199 200 202 204 205 205 205 205 207 209 210 210 212 213 215 216 214 215 215 209 203 201 201 199 199 201 202 204 205 206 207 206 206 207 208 208 208 210 211 212 211 212 213 214 215 216 217 218 219 219 221 223 224 225 227 229 231 233 233 235 236 233 233 239 241 243 246 245 243 244 245 247 245 243 243 244 246 247
194 195 196 198 199 200 200 199 198 198 200 201 203 204 206 206 206 208 209 211 213 213 213 213 212 214 214 214 216 212 206 203 202 201 200 201 202 202 204 206 207 207 207 208 208 208 208 209 210 211 211 212 213 214 215 217 219 220 221 222 224 226 228 229 231 232 233 234 234 236 238 236 234 239 243 244 247 248 247 246 245 245 245 244 244 244 245 247
194 196 198 199 200 201 200 200 200 200 201 203 204 205 207 207 206 208 210 212 214 214 214 215 214 214 215 214 216 216 212 207 205 203 202 202 203 203 203 205 206 207 208 209 209 208 207 209 211 212 212 212 213 213 215 218 221 222 223 225 228 229 231 232 233 234 235 236 236 236 239 239 236 238 244 246 247 249 249 249 248 246 245 244 244 245 246 247
196 197 199 200 201 201 200 201 202 202 204 205 206 206 207 208 207 208 211 214 215 214 215 216 215 216 217 216 216 217 216 212 209 207 205 204 204 205 204 204 205 207 209 211 210 208 209 210 212 214 215 215 215 216 218 221 222 223 225 227 229 231 233 234 235 236 237 238 238 238 241 243 239 238 245 247 248 251 252 252 250 248 246 244 243 244 246 247
197 199 200 201 201 200 200 201 203 206 207 206 207 208 208 208 208 209 212 215 216 216 217 218 217 217 219 219 219 219 218 215 212 210 209 207 207 206 206 206 206 207 208 210 209 208 210 212 213 215 217 217 218 219 221 223 224 225 226 228 230 231 233 235 236 237 239 239 240 240 242 246 243 239 245 249 250 252 254 254 253 250 248 245 243 243 244 246
198 199 201 201 201 201 201 202 204 206 208 209 209 210 210 210 209 210 213 216 217 217 218 220 221 221 221 222 222 221 220 218 215 213 212 211 210 209 209 209 209 209 209 209 208 208 209 211 213 215 216 217 218 220 222 223 224 225 227 228 230 231 233 235 236 238 239 240 240 241 243 247 247 242 244 251 253 253 254 256 255 252 250 247 244 242 242 244
199 199 200 201 202 203 204 205 206 206 207 209 211 211 211 211 212 215 217 216 218 219 218 220 223 223 224 226 227 225 223 220 217 216 215 213 212 212 211 211 211 210 210 210 210 210 209 210 211 213 215 216 218 220 222 223 225 226 227 229 230 232 233 235 237 238 240 240 241 243 245 248 248 246 247 251 253 254 254 255 255 254 251 249 246 243 242 242
197 199 200 202 203 204 205 207 209 209 208 209 210 211 212 212 214 217 218 217 219 221 220 222 225 226 225 225 226 226 226 224 221 219 218 216 215 214 214 214 214 214 213 212 212 212 211 212 212 213 214 215 217 219 221 223 224 226 227 228 230 232 233 235 237 239 241 242 243 245 247 248 249 250 252 252 251 253 253 254 254 254 253 250 247 245 243 243
197 199 201 203 204 206 207 207 208 210 211 211 212 212 213 215 216 217 218 218 219 219 220 222 224 227 226 224 224 224 224 225 224 222 221 219 216 215 215 215 216 217 216 216 215 214 213 213 213 214 215 216 218 220 222 223 226 228 230 231 232 234 236 237 239 242 244 245 246 247 248 249 249 250 253 253 251 252 252 253 253 253 253 252 250 248 246 245
198 200 202 204 205 207 207 208 209 210 212 213 214 214 215 217 217 217 219 220 219 219 220 222 223 225 226 225 226 225 225 224 223 223 224 223 220 216 215 215 216 217 217 217 217 217 216 217 216 217 218 219 221 223 224 226 228 229 231 233 235 237 239 240 242 244 245 246 247 247 247 248 249 250 252 253 253 253 253 252 252 252 252 251 251 250 250 249
199 200 203 206 207 207 208 209 210 211 212 214 215 217 218 218 217 218 219 220 220 220 221 222 223 225 226 225 224 224 225 225 224 223 224 225 224 221 218 217 216 217 217 217 217 218 218 219 219 220 222 223 224 225 226 227 229 229 230 231 233 235 237 239 240 241 243 243 244 245 246 248 249 251 251 252 253 254 254 253 252 251 249 249 250 250 251 251
200 201 203 206 207 209 209 210 211 212 213 214 216 218 218 218 219 220 221 221 221 223 224 223 223 224 226 227 226 224 225 225 225 225 225 225 225 224 222 220 219 218 218 218 218 218 218 218 218 220 222 224 225 226 226 228 229 231 232 233 234 236 237 239 240 242 243 244 244 245 247 248 249 250 251 252 253 254 254 254 253 251 249 248 249 249 250 252
202 203 204 205 206 208 210 211 212 213 214 215 217 219 218 218 220 222 224 225 225 226 228 227 227 227 228 229 229 228 227 226 225 225 226 225 225 224 223 222 221 220 218 217 217 218 219 220 219 219 222 223 225 227 227 228 229 231 232 234 235 237 238 238 240 241 242 243 244 245 245 246 246 248 251 253 254 255 254 253 253 252 251 250 249 250 250 251
205 205 206 205 206 208 210 212 213 213 215 216 218 219 219 220 222 223 225 227 228 229 230 230 230 231 232 233 232 232 230 228 227 227 226 226 226 225 224 224 224 222 218 216 216 216 218 220 220 220 223 224 225 227 228 229 230 231 232 232 234 236 237 238 240 241 242 244 244 244 244 244 245 247 251 253 254 255 254 254 253 252 252 251 249 249 250 250
207 207 208 208 207 209 211 213 214 214 216 217 218 219 220 222 223 224 226 227 228 230 231 232 232 231 233 233 234 234 233 232 231 230 230 229 228 226 224 225 225 223 218 215 215 216 216 220 221 220 222 225 226 227 228 228 229 230 231 231 233 235 236 237 239 241 242 244 245 244 243 243 243 246 249 252 253 254 255 256 255 253 251 249 249 249 250 250
209 209 210 210 210 211 212 214 214 215 217 218 218 220 221 223 224 225 226 227 228 229 231 232 233 232 233 233 233 234 233 233 232 232 233 232 232 229 225 224 224 221 217 214 215 216 217 220 222 222 222 224 226 226 227 229 230 232 233 233 234 236 238 239 240 241 242 244 245 244 244 242 242 244 246 249 252 254 255 255 254 253 251 250 250 249 250 251
208 209 211 212 211 212 214 215 216 217 218 218 219 221 222 224 225 226 227 227 228 229 230 232 233 233 233 234 235 234 234 233 231 232 233 232 233 232 227 225 224 220 217 215 215 217 219 221 223 223 223 225 226 227 228 229 231 232 234 234 235 237 239 241 241 241 242 244 245 245 245 242 241 243 244 246 249 252 253 254 254 254 253 252 252 251 251 251
208 209 211 212 213 213 215 217 219 220 220 219 220 222 223 224 226 228 228 229 229 229 229 230 232 233 234 235 235 235 235 234 231 231 232 231 232 233 230 227 225 221 217 217 217 218 221 223 225 226 226 226 227 228 229 230 231 232 233 233 234 235 236 238 240 239 240 243 244 245 246 242 239 242 243 245 248 250 251 252 253 254 253 252 252 251 252 252
208 209 211 212 214 215 216 218 220 221 221 222 223 225 225 226 228 229 230 231 231 230 230 231 232 234 235 234 234 233 233 234 232 230 231 231 231 233 232 227 223 221 219 220 220 221 224 226 228 229 229 229 229 229 230 231 232 232 232 232 233 235 236 238 240 240 240 241 243 245 246 243 240 243 244 245 247 248 249 250 250 251 251 252 252 252 252 252
209 210 211 212 213 215 217 219 219 220 221 222 223 225 226 227 228 229 230 232 233 233 232 233 234 235 236 235 234 233 233 233 232 229 228 230 230 232 233 230 224 221 221 222 223 223 226 228 228 229 230 230 230 229 229 229 230 231 230 231 233 234 236 238 239 240 242 242 243 246 247 244 243 244 244 245 247 247 248 249 250 251 252 253 253 253 253 253
208 210 212 214 214 215 217 219 220 221 221 222 223 225 226 227 229 229 231 232 233 234 234 234 235 236 236 235 234 234 234 234 232 230 228 228 229 230 232 232 228 224 222 223 225 227 229 231 230 230 231 230 229 229 228 228 230 232 232 232 234 236 238 240 242 244 244 243 244 246 247 245 244 244 245 246 246 247 248 250 251 252 253 254 254 254 254 255
208 210 212 214 216 217 219 219 220 222 222 223 224 226 227 229 231 231 232 233 233 232 233 234 234 235 235 235 234 233 233 234 233 231 229 228 229 229 230 232 231 228 224 224 225 227 230 231 231 232 232 232 232 232 231 233 235 236 235 236 239 241 243 244 246 246 245 246 246 245 246 245 242 243 245 247 248 248 249 252 253 254 254 255 256 257 258 259
212 212 212 214 216 217 218 219 220 222 223 223 224 226 228 231 233 234 234 234 234 234 234 234 234 235 236 236 234 231 232 234 234 232 230 229 229 230 230 231 232 231 228 226 227 228 230 231 231 231 232 232 233 233 233 234 235 235 235 236 237 239 242 244 246 245 245 248 245 241 242 243 240 240 244 247 250 252 252 253 254 255 256 257 259 260 262 265
218 218 216 216 216 216 216 217 219 222 223 224 225 227 229 231 232 234 234 235 236 236 237 237 237 237 238 238 235 232 232 235 235 234 231 230 229 230 231 232 232 233 231 230 229 230 231 232 232 232 233 232 233 234 234 235 235 235 235 235 235 236 238 240 241 241 242 244 242 237 239 240 237 239 244 247 250 253 254 255 256 257 259 261 263 265 267 269
221 221 220 220 218 215 215 217 220 223 224 225 226 227 229 230 231 233 234 236 237 237 238 239 238 238 238 238 236 233 232 234 236 237 235 231 229 230 231 232 233 234 234 234 233 232 233 234 234 235 235 234 235 236 236 237 238 237 237 238 238 239 240 240 241 241 242 244 242 239 240 239 238 242 246 249 253 256 257 259 260 262 264 266 267 268 269 269
220 219 220 222 220 217 216 217 219 223 225 226 228 229 230 231 231 232 233 234 235 237 238 238 239 238 237 237 236 234 234 235 238 239 237 233 231 230 231 232 234 235 236 237 237 237 237 236 236 236 237 237 237 238 238 239 240 240 239 239 239 240 241 241 241 241 243 244 243 243 244 241 241 245 250 253 257 259 261 263 264 265 267 267 267 267 267 268
218 218 219 221 220 218 218 218 220 222 224 226 229 230 231 232 232 233 234 234 235 236 237 237 237 237 236 235 235 234 234 236 238 239 236 233 231 230 231 232 233 235 236 238 240 241 241 241 239 239 239 239 238 239 240 241 242 242 240 239 240 240 241 242 242 243 245 247 246 247 248 245 244 248 252 256 258 260 262 265 266 266 266 266 266 266 267 268
217 218 220 221 221 218 217 218 220 222 224 226 228 230 231 231 232 233 234 234 235 235 235 235 235 235 235 235 234 234 235 237 238 238 236 233 230 229 229 231 231 233 235 237 239 242 244 245 244 244 245 242 240 241 242 243 244 243 241 241 242 243 243 244 245 245 247 249 249 249 249 249 249 250 252 254 256 258 260 262 264 265 265 265 266 267 268 269
Height
5696 5701 5706 5711 5715 5721 5725 5729 5733 5737 5741 5745 5749 5752 5755 5757 5759 5761 5765 5768 5770 5774 5778 5781 5783 5785 5787 5789 5791 5793 5795 5797 5799 5802 5805 5809 5812 5815 5819 5821 5823 5828 5833 5836 5839 5844 5847 5850 5852 5855 5859 5861 5864 5866 5868 5870 5873 5875 5876 5878 5879 5881 5882 5883 5884 5886 5887 5889 5890 5893 5894 5895 5896 5896 5896 5896 5897 5898 5898 5899 5899 5900 5901 5901 5901 5902 5903 5903
5692 5697 5703 5707 5712 5717 5722 5726 5730 5734 5738 5742 5746 5749 5753 5755 5756 5758 5763 5766 5768 5773 5777 5779 5781 5782 5783 5786 5789 5790 5792 5794 5797 5800 5803 5806 5810 5813 5817 5818 5821 5826 5831 5834 5838 5842 5846 5849 5852 5854 5857 5860 5863 5865 5867 5870 5872 5874 5876 5877 5878 5880 5881 5882 5884 5885 5887 5888 5889 5891 5893 5895 5896 5896 5896 5897 5897 5897 5898 5898 5899 5900 5900 5901 5901 5902 5903 5903
5688 5693 5699 5704 5708 5714 5718 5723 5726 5730 5735 5739 5743 5746 5750 5753 5755 5757 5760 5764 5767 5771 5775 5778 5779 5778 5780 5783 5786 5788 5789 5792 5795 5798 5800 5804 5807 5811 5814 5815 5818 5823 5828 5832 5837 5841 5843 5846 5849 5852 5856 5858 5861 5864 5866 5869 5871 5873 5875 5876 5877 5879 5880 5881 5883 5885 5886 5887 5888 5890 5892 5894 5895 5895 5896 5897 5897 5897 5897 5898 5898 5899 5900 5901 5901 5901 5902 5903
5684 5690 5695 5700 5705 5710 5715 5719 5723 5727 5732 5736 5739 5743 5747 5750 5753 5755 5758 5762 5765 5768 5772 5776 5776 5775 5778 5781 5783 5785 5787 5790 5793 5796 5798 5801 5805 5808 5810 5812 5816 5821 5825 5830 5835 5839 5842 5844 5847 5850 5853 5856 5859 5862 5864 5867 5870 5872 5873 5874 5876 5878 5879 5881 5882 5884 5886 5886 5887 5888 5890 5892 5894 5895 5896 5897 5897 5897 5897 5897 5898 5899 5900 5900 5901 5901 5902 5902
5680 5686 5692 5697 5702 5707 5712 5716 5720 5725 5729 5733 5736 5740 5744 5747 5750 5753 5755 5759 5762 5765 5768 5772 5773 5773 5776 5779 5780 5783 5785 5788 5791 5794 5796 5799 5802 5805 5807 5810 5813 5819 5823 5828 5833 5837 5840 5843 5845 5848 5851 5854 5857 5860 5863 5866 5868 5870 5871 5873 5874 5876 5878 5880 5882 5884 5885 5886 5886 5887 5889 5891 5892 5894 5895 5896 5897 5897 5897 5897 5897 5898 5899 5900 5900 5901 5901 5902
5676 5682 5688 5694 5699 5703 5708 5713 5717 5722 5725 5729 5733 5737 5741 5744 5747 5750 5753 5756 5759 5762 5765 5769 5770 5772 5774 5777 5779 5781 5783 5786 5790 5792 5794 5797 5800 5802 5805 5807 5812 5817 5822 5827 5831 5835 5838 5842 5844 5847 5850 5853 5856 5859 5863 5865 5867 5869 5870 5872 5873 5875 5876 5878 5880 5883 5885 5885 5886 5886 5887 5889 5891 5892 5894 5895 5896 5896 5897 5897 5897 5897 5898 5899 5900 5900 5901 5901
5672 5678 5684 5690 5695 5700 5705 5710 5715 5719 5722 5726 5730 5734 5738 5741 5745 5748 5750 5754 5757 5760 5763 5766 5768 5770 5772 5774 5776 5779 5782 5785 5788 5789 5791 5795 5797 5800 5802 5806 5810 5815 5820 5825 5830 5834 5837 5840 5843 5846 5850 5852 5855 5858 5861 5864 5866 5867 5869 5870 5872 5873 5875 5877 5879 5881 5883 5885 5885 5886 5886 5888 5889 5891 5892 5893 5895 5895 5896 5896 5896 5896 5897 5898 5899 5899 5900 5901
5669 5675 5681 5687 5692 5697 5702 5707 5712 5715 5719 5724 5727 5731 5735 5738 5742 5745 5748 5752 5755 5757 5761 5763 5765 5767 5769 5772 5774 5777 5781 5784 5785 5786 5789 5792 5794 5797 5800 5804 5809 5813 5819 5823 5828 5832 5836 5839 5842 5845 5848 5851 5854 5857 5859 5862 5864 5865 5867 5868 5870 5872 5873 5875 5877 5879 5882 5884 5885 5885 5886 5886 5888 5890 5891 5892 5893 5894 5894 5895 5895 5895 5895 5896 5897 5898 5899 5900
5665 5671 5677 5684 5689 5694 5699 5704 5709 5713 5717 5721 5725 5728 5732 5736 5739 5743 5746 5749 5752 5755 5758 5761 5763 5764 5767 5769 5772 5775 5779 5781 5782 5783 5786 5790 5792 5795 5798 5803 5807 5812 5817 5821 5825 5829 5833 5837 5840 5843 5846 5849 5852 5855 5857 5859 5861 5864 5865 5867 5868 5870 5872 5874 5876 5878 5880 5882 5883 5884 5885 5886 5887 5889 5890 5891 5892 5893 5893 5894 5894 5894 5894 5895 5896 5897 5898 5898
5662 5668 5674 5681 5686 5691 5696 5701 5706 5710 5714 5718 5722 5726 5730 5733 5737 5740 5743 5746 5750 5753 5756 5758 5760 5762 5764 5767 5770 5773 5776 5776 5778 5781 5783 5787 5790 5793 5797 5801 5805 5810 5815 5819 5824 5828 5832 5835 5837 5841 5844 5847 5849 5852 5854 5856 5859 5861 5862 5864 5866 5868 5870 5872 5874 5876 5878 5880 5882 5883 5884 5885 5886 5887 5888 5889 5891 5891 5892 5893 5893 5893 5894 5894 5894 5895 5896 5897
5658 5664 5671 5677 5683 5688 5693 5698 5703 5707 5711 5716 5719 5723 5727 5731 5734 5738 5741 5744 5747 5750 5753 5755 5758 5760 5762 5765 5768 5770 5772 5773 5776 5778 5780 5784 5787 5791 5795 5799 5803 5808 5813 5818 5822 5826 5829 5832 5835 5838 5841 5844 5847 5850 5852 5854 5856 5858 5860 5862 5864 5866 5868 5870 5872 5874 5876 5878 5880 5882 5883 5884 5885 5886 5887 5888 5889 5890 5891 5892 5892 5892 5893 5893 5893 5894 5894 5895
5655 5662 5668 5674 5679 5684 5690 5695 5700 5704 5708 5713 5717 5720 5724 5728 5732 5735 5738 5741 5745 5748 5750 5752 5755 5757 5760 5762 5765 5767 5768 5771 5773 5775 5778 5782 5785 5789 5793 5797 5802 5806 5811 5815 5819 5823 5826 5830 5833 5836 5839 5842 5845 5848 5850 5852 5854 5856 5858 5860 5862 5864 5866 5868 5870 5872 5874 5876 5878 5880 5881 5883 5884 5884 5886 5887 5888 5889 5889 5890 5891 5891 5892 5892 5892 5893 5893 5894
5653 5659 5665 5670 5676 5682 5687 5692 5697 5701 5706 5710 5714 5718 5721 5725 5729 5732 5735 5738 5742 5745 5747 5750 5752 5755 5757 5760 5762 5764 5766 5768 5771 5773 5776 5779 5784 5788 5792 5796 5800 5804 5809 5812 5816 5820 5823 5827 5830 5834 5837 5840 5843 5845 5848 5851 5852 5854 5855 5857 5859 5861 5864 5866 5869 5871 5873 5875 5876 5878 5880 5881 5882 5883 5884 5885 5886 5887 5888 5889 5889 5890 5891 5891 5891 5892 5892 5893
5650 5656 5661 5667 5673 5679 5684 5689 5693 5698 5702 5706 5711 5715 5718 5722 5726 5729 5732 5735 5739 5742 5744 5747 5749 5752 5755 5757 5760 5762 5764 5767 5769 5772 5774 5778 5783 5787 5790 5794 5798 5802 5807 5811 5814 5818 5821 5824 5827 5830 5834 5837 5840 5843 5846 5848 5850 5852 5854 5855 5857 5859 5862 5865 5867 5869 5871 5873 5875 5876 5878 5880 5880 5881 5883 5884 5884 5886 5887 5887 5888 5889 5889 5890 5890 5891 5891 5891
5647 5653 5658 5664 5670 5675 5680 5685 5690 5694 5698 5703 5707 5711 5715 5719 5723 5726 5729 5733 5736 5739 5741 5744 5746 5749 5752 5755 5758 5760 5762 5765 5768 5770 5773 5777 5781 5785 5789 5793 5796 5800 5804 5808 5812 5815 5818 5821 5824 5828 5831 5835 5838 5841 5843 5846 5848 5850 5851 5853 5856 5858 5861 5864 5866 5868 5870 5872 5873 5875 5877 5878 5878 5879 5881 5882 5883 5884 5885 5886 5886 5887 5888 5888 5889 5889 5890 5890
5643 5649 5655 5662 5667 5672 5678 5682 5687 5691 5695 5700 5704 5708 5712 5716 5719 5723 5726 5730 5733 5736 5739 5741 5744 5746 5749 5753 5756 5759 5761 5764 5766 5769 5772 5775 5779 5784 5787 5791 5795 5798 5802 5805 5809 5812 5815 5818 5822 5825 5829 5832 5835 5838 5841 5843 5845 5847 5849 5852 5855 5858 5860 5862 5864 5866 5868 5870 5871 5873 5875 5876 5876 5878 5878 5880 5881 5882 5883 5884 5885 5885 5886 5887 5887 5888 5888 5888
5640 5647 5653 5659 5664 5670 5675 5680 5684 5688 5693 5696 5700 5704 5708 5712 5716 5720 5723 5726 5729 5733 5736 5738 5741 5744 5747 5751 5755 5758 5760 5763 5765 5767 5770 5773 5778 5782 5785 5789 5792 5796 5799 5802 5806 5809 5812 5816 5819 5823 5827 5830 5832 5835 5837 5839 5842 5844 5847 5850 5853 5856 5858 5860 5862 5864 5866 5867 5869 5871 5873 5874 5874 5876 5876 5877 5879 5880 5881 5881 5883 5884 5884 5885 5885 5886 5886 5887
5638 5644 5650 5656 5661 5667 5672 5677 5681 5685 5689 5693 5697 5701 5705 5709 5713 5716 5720 5723 5726 5729 5732 5734 5737 5741 5745 5749 5753 5756 5758 5761 5763 5765 5768 5771 5776 5780 5784 5787 5790 5793 5796 5799 5803 5806 5810 5813 5817 5820 5823 5826 5829 5832 5834 5838 5842 5846 5849 5852 5854 5856 5857 5859 5861 5862 5863 5864 5866 5868 5870 5872 5872 5873 5874 5875 5876 5878 5879 5879 5880 5881 5882 5883 5883 5884 5884 5885
5636 5642 5647 5653 5658 5664 5669 5674 5678 5681 5685 5689 5693 5697 5701 5706 5710 5714 5717 5720 5724 5727 5730 5733 5736 5740 5744 5747 5749 5751 5754 5757 5760 5763 5766 5769 5773 5777 5781 5785 5787 5790 5794 5797 5800 5803 5807 5810 5813 5816 5820 5824 5827 5831 5834 5839 5842 5845 5847 5850 5852 5853 5855 5857 5858 5859 5860 5861 5863 5865 5868 5869 5869 5871 5872 5873 5874 5876 5877 5877 5878 5878 5879 5880 5881 5882 5882 5883
5633 5639 5645 5650 5656 5661 5666 5670 5674 5678 5682 5687 5691 5695 5699 5703 5707 5711 5715 5718 5722 5725 5729 5733 5735 5738 5742 5744 5746 5748 5751 5755 5758 5761 5763 5767 5771 5775 5779 5782 5785 5788 5791 5795 5798 5802 5805 5807 5811 5816 5821 5824 5827 5830 5833 5836 5838 5840 5842 5844 5847 5848 5850 5852 5854 5856 5857 5859 5861 5863 5865 5866 5867 5868 5869 5870 5872 5874 5875 5875 5876 5876 5877 5878 5879 5879 5880 5880
5631 5637 5642 5648 5653 5658 5663 5667 5671 5676 5680 5685 5690 5695 5699 5704 5708 5712 5715 5717 5719 5722 5725 5729 5732 5735 5739 5741 5743 5746 5750 5753 5756 5758 5761 5764 5768 5772 5775 5779 5783 5786 5790 5792 5795 5799 5802 5805 5811 5816 5819 5821 5824 5827 5830 5833 5835 5837 5839 5842 5844 5845 5847 5850 5852 5854 5855 5857 5859 5861 5862 5864 5865 5865 5866 5868 5870 5871 5871 5872 5873 5874 5874 5875 5876 5877 5877 5878
5628 5634 5640 5645 5650 5655 5660 5664 5669 5673 5678 5683 5688 5693 5698 5702 5706 5710 5713 5715 5717 5719 5721 5724 5728 5732 5735 5738 5740 5743 5747 5750 5753 5756 5759 5762 5766 5769 5773 5777 5781 5784 5788 5790 5793 5796 5798 5803 5809 5811 5813 5816 5819 5823 5826 5828 5831 5833 5836 5838 5840 5842 5845 5847 5849 5851 5853 5854 5856 5858 5860 5862 5862 5862 5863 5865 5867 5868 5868 5869 5871 5871 5872 5873 5873 5874 5875 5875
5625 5631 5637 5642 5647 5652 5657 5661 5666 5671 5676 5681 5686 5691 5694 5698 5701 5704 5707 5711 5714 5717 5719 5723 5726 5729 5732 5735 5737 5740 5744 5747 5751 5755 5757 5761 5764 5767 5771 5775 5778 5781 5785 5788 5792 5795 5799 5803 5805 5807 5809 5812 5816 5819 5822 5825 5828 5830 5833 5835 5837 5840 5842 5844 5846 5848 5850 5851 5853 5855 5856 5859 5859 5859 5861 5862 5864 5866 5865 5866 5867 5868 5869 5870 5870 5871 5872 5873
5623 5629 5634 5639 5644 5649 5654 5659 5664 5669 5674 5679 5683 5687 5691 5693 5696 5699 5703 5706 5709 5712 5716 5720 5724 5726 5729 5732 5734 5737 5741 5745 5749 5752 5756 5759 5762 5765 5769 5772 5775 5779 5782 5786 5790 5793 5798 5801 5802 5804 5807 5810 5813 5816 5819 5822 5825 5827 5830 5833 5835 5837 5839 5841 5843 5845 5846 5848 5850 5852 5853 5855 5857 5857 5858 5859 5860 5862 5863 5863 5863 5864 5866 5867 5868 5869 5870 5870
5621 5626 5632 5636 5641 5646 5650 5656 5661 5666 5671 5675 5680 5684 5687 5690 5693 5696 5699 5702 5705 5707 5711 5715 5720 5723 5726 5729 5732 5735 5738 5742 5746 5749 5752 5756 5759 5763 5766 5769 5772 5776 5780 5783 5786 5789 5793 5795 5798 5802 5805 5808 5811 5814 5817 5819 5822 5824 5827 5830 5832 5834 5836 5838 5840 5842 5843 5845 5847 5848 5849 5851 5854 5854 5855 5856 5857 5858 5859 5860 5861 5861 5863 5864 5865 5866 5867 5867
5618 5624 5629 5634 5638 5642 5647 5653 5658 5663 5667 5672 5677 5680 5683 5687 5690 5692 5696 5699 5701 5704 5707 5711 5715 5719 5723 5726 5729 5733 5735 5738 5742 5746 5749 5752 5756 5760 5763 5766 5770 5774 5777 5780 5781 5784 5788 5792 5795 5798 5801 5804 5807 5810 5813 5815 5818 5820 5824 5827 5829 5831 5833 5835 5837 5839 5839 5841 5843 5845 5845 5847 5850 5852 5852 5853 5854 5855 5856 5857 5858 5859 5860 5861 5862 5863 5864 5865
5616 5621 5626 5631 5635 5640 5646 5651 5655 5660 5665 5669 5673 5677 5680 5684 5686 5689 5692 5694 5696 5700 5704 5708 5712 5716 5720 5723 5726 5730 5732 5735 5740 5743 5746 5750 5753 5756 5759 5763 5767 5771 5774 5775 5777 5781 5786 5790 5792 5795 5797 5800 5802 5806 5809 5811 5813 5817 5821 5823 5825 5827 5829 5831 5833 5834 5835 5837 5839 5840 5842 5843 5846 5849 5849 5850 5851 5851 5852 5853 5855 5856 5857 5858 5859 5860 5861 5861
5612 5617 5623 5628 5633 5638 5644 5649 5654 5658 5662 5666 5670 5672 5676 5680 5683 5685 5687 5688 5692 5697 5701 5705 5710 5714 5717 5720 5723 5727 5730 5735 5738 5740 5744 5747 5750 5753 5757 5760 5764 5767 5770 5772 5776 5781 5784 5787 5789 5792 5794 5797 5801 5804 5806 5808 5810 5813 5817 5818 5821 5823 5825 5826 5828 5829 5831 5832 5833 5836 5838 5838 5842 5846 5847 5847 5848 5848 5848 5850 5851 5853 5854 5855 5856 5857 5857 5858
5609 5614 5619 5624 5629 5634 5640 5645 5651 5655 5658 5662 5666 5668 5672 5675 5678 5680 5682 5685 5690 5695 5699 5702 5706 5710 5713 5717 5721 5724 5729 5732 5735 5738 5742 5745 5747 5751 5755 5758 5760 5762 5765 5768 5773 5777 5780 5783 5785 5788 5791 5795 5799 5801 5802 5805 5807 5810 5812 5813 5816 5818 5820 5822 5823 5825 5826 5827 5829 5833 5835 5834 5837 5842 5844 5843 5845 5845 5845 5846 5848 5849 5850 5851 5853 5854 5854 5855
5605 5611 5616 5622 5627 5631 5636 5640 5644 5648 5654 5659 5662 5665 5668 5670 5673 5675 5677 5682 5688 5692 5696 5700 5704 5708 5711 5714 5718 5721 5725 5729 5733 5736 5738 5741 5745 5748 5752 5754 5756 5758 5761 5764 5768 5771 5774 5777 5780 5783 5787 5791 5794 5795 5798 5800 5802 5805 5807 5809 5811 5813 5815 5817 5818 5820 5821 5822 5825 5829 5831 5831 5832 5838 5841 5841 5842 5843 5842 5843 5844 5846 5847 5848 5849 5850 5851 5852
5602 5608 5614 5619 5624 5628 5633 5636 5639 5644 5650 5654 5657 5660 5663 5666 5669 5671 5675 5682 5686 5689 5693 5697 5701 5705 5709 5713 5716 5718 5721 5724 5728 5731 5734 5738 5741 5744 5747 5749 5751 5754 5757 5761 5764 5767 5770 5772 5775 5779 5783 5786 5789 5791 5793 5795 5797 5800 5803 5805 5807 5809 5810 5812 5813 5815 5815 5818 5822 5825 5827 5827 5828 5833 5838 5838 5839 5839 5839 5840 5841 5842 5843 5844 5845 5846 5847 5848
5600 5605 5610 5615 5619 5623 5627 5632 5637 5642 5645 5648 5651 5654 5658 5660 5662 5667 5675 5680 5682 5685 5691 5696 5699 5703 5707 5710 5712 5714 5717 5720 5724 5727 5730 5734 5737 5741 5744 5746 5749 5752 5754 5757 5760 5764 5766 5769 5772 5775 5778 5781 5784 5785 5788 5790 5793 5796 5799 5801 5802 5803 5805 5806 5808 5810 5812 5815 5819 5821 5822 5823 5826 5831 5833 5834 5835 5835 5836 5837 5837 5838 5839 5840 5841 5842 5843 5844
5596 5601 5606 5610 5615 5619 5622 5628 5633 5637 5641 5644 5647 5650 5653 5654 5658 5666 5673 5675 5678 5684 5689 5693 5696 5700 5703 5705 5707 5710 5713 5717 5721 5724 5727 5730 5733 5736 5739 5743 5747 5750 5753 5757 5758 5760 5762 5765 5768 5771 5774 5777 5780 5782 5784 5788 5791 5793 5796 5798 5799 5800 5801 5803 5805 5808 5810 5813 5816 5817 5818 5819 5823 5827 5827 5828 5830 5832 5833 5833 5834 5834 5835 5836 5837 5838 5839 5840
5593 5598 5602 5606 5610 5614 5619 5624 5628 5632 5637 5640 5643 5646 5648 5651 5658 5665 5668 5671 5677 5681 5685 5689 5692 5695 5697 5701 5704 5707 5709 5712 5716 5720 5722 5725 5727 5730 5734 5738 5742 5746 5751 5754 5755 5758 5760 5763 5767 5770 5773 5775 5778 5780 5783 5787 5788 5790 5792 5794 5795 5797 5799 5801 5803 5805 5807 5809 5810 5812 5813 5815 5820 5823 5822 5823 5825 5828 5829 5829 5830 5831 5831 5831 5832 5833 5834 5835
5588 5593 5598 5602 5606 5611 5616 5621 5624 5628 5631 5635 5639 5641 5643 5650 5658 5662 5664 5669 5674 5677 5681 5685 5688 5691 5693 5697 5700 5703 5705 5708 5712 5715 5717 5720 5723 5728 5732 5735 5739 5742 5745 5748 5751 5755 5758 5761 5766 5769 5771 5774 5776 5777 5780 5782 5782 5784 5786 5788 5790 5793 5794 5796 5798 5799 5801 5803 5804 5806 5808 5813 5817 5818 5818 5819 5821 5823 5824 5825 5826 5826 5827 5827 5828 5828 5829 5830
5584 5588 5593 5597 5603 5609 5613 5617 5620 5624 5627 5630 5633 5636 5642 5652 5656 5658 5662 5667 5670 5673 5676 5680 5683 5686 5689 5693 5696 5699 5702 5705 5709 5711 5713 5716 5719 5724 5729 5732 5736 5739 5742 5745 5748 5751 5754 5757 5762 5765 5767 5769 5771 5773 5775 5776 5777 5780 5782 5784 5788 5790 5791 5792 5794 5795 5797 5798 5799 5802 5806 5810 5812 5812 5813 5815 5817 5818 5819 5820 5821 5822 5822 5823 5824 5824 5825 5826
5580 5584 5588 5593 5599 5604 5609 5613 5616 5619 5623 5626 5629 5634 5643 5649 5651 5655 5660 5664 5667 5669 5672 5676 5679 5682 5686 5690 5693 5696 5698 5701 5703 5706 5709 5712 5714 5718 5724 5728 5732 5736 5739 5742 5745 5748 5752 5755 5758 5760 5761 5764 5766 5768 5770 5771 5773 5776 5778 5782 5786 5785 5786 5788 5789 5791 5792 5793 5795 5799 5802 5806 5807 5808 5810 5811 5812 5813 5814 5815 5816 5817 5818 5819 5820 5820 5821 5822
5576 5580 5584 5589 5595 5599 5604 5608 5611 5615 5619 5622 5627 5634 5641 5643 5646 5652 5656 5659 5662 5665 5668 5671 5675 5680 5684 5687 5690 5693 5695 5697 5699 5702 5705 5707 5710 5715 5720 5724 5729 5733 5735 5738 5740 5744 5747 5750 5753 5755 5757 5759 5761 5763 5764 5766 5769 5771 5774 5778 5779 5778 5781 5784 5784 5786 5788 5789 5791 5795 5798 5800 5803 5805 5807 5807 5807 5808 5809 5810 5812 5813 5813 5814 5815 5816 5817 5818
5572 5576 5580 5585 5590 5594 5599 5602 5606 5610 5613 5618 5625 5632 5636 5639 5643 5648 5651 5654 5657 5660 5664 5667 5672 5677 5680 5683 5687 5689 5691 5694 5697 5699 5701 5704 5707 5712 5717 5721 5726 5729 5731 5733 5735 5738 5742 5744 5746 5749 5752 5753 5755 5756 5758 5762 5765 5767 5769 5771 5772 5774 5777 5779 5780 5782 5784 5785 5787 5790 5792 5795 5799 5802 5803 5802 5802 5803 5804 5806 5808 5809 5809 5809 5810 5812 5813 5813
5570 5573 5576 5582 5586 5590 5594 5598 5601 5605 5609 5616 5624 5627 5631 5635 5639 5642 5645 5648 5651 5656 5660 5663 5668 5672 5676 5679 5682 5684 5687 5690 5693 5696 5698 5702 5705 5709 5713 5717 5720 5724 5726 5728 5730 5733 5736 5738 5740 5743 5745 5746 5748 5751 5755 5758 5760 5762 5764 5766 5769 5771 5773 5775 5777 5778 5780 5781 5782 5784 5785 5790 5796 5798 5798 5798 5798 5799 5800 5801 5802 5803 5804 5805 5806 5807 5808 5809
5565 5568 5571 5577 5581 5585 5589 5592 5596 5601 5608 5615 5619 5622 5626 5631 5633 5636 5639 5643 5647 5652 5656 5660 5663 5668 5672 5674 5677 5680 5683 5685 5688 5691 5693 5698 5701 5705 5710 5714 5716 5720 5721 5722 5724 5727 5730 5733 5734 5736 5739 5741 5745 5748 5751 5753 5755 5757 5760 5762 5765 5767 5769 5770 5771 5773 5776 5776 5777 5778 5779 5785 5792 5793 5794 5794 5794 5796 5796 5797 5797 5799 5800 5801 5802 5803 5804 5804
5560 5562 5567 5573 5577 5580 5585 5589 5594 5600 5605 5609 5613 5617 5621 5625 5628 5631 5635 5639 5642 5647 5652 5655 5658 5662 5666 5669 5673 5676 5678 5681 5684 5686 5690 5694 5698 5702 5707 5710 5712 5715 5717 5718 5721 5724 5727 5728 5729 5731 5734 5737 5740 5742 5744 5747 5749 5752 5754 5757 5760 5761 5763 5764 5765 5769 5771 5770 5771 5772 5772 5780 5788 5789 5790 5791 5791 5792 5792 5793 5794 5795 5796 5797 5797 5798 5799 5799
5555 5560 5563 5568 5573 5577 5580 5585 5590 5596 5600 5605 5609 5612 5616 5620 5623 5626 5630 5634 5638 5643 5647 5650 5653 5657 5660 5664 5668 5670 5673 5676 5678 5682 5687 5690 5693 5697 5699 5703 5706 5709 5711 5713 5716 5719 5721 5722 5723 5726 5728 5731 5733 5736 5738 5741 5743 5745 5748 5752 5755 5756 5759 5760 5761 5764 5764 5763 5767 5767 5766 5776 5785 5785 5786 5786 5787 5787 5788 5789 5790 5790 5791 5792 5793 5794 5794 5794
5553 5557 5559 5562 5566 5571 5575 5580 5586 5591 5595 5599 5603 5606 5610 5614 5617 5621 5625 5629 5634 5638 5642 5646 5649 5652 5656 5660 5663 5666 5668 5670 5673 5678 5682 5684 5688 5691 5693 5696 5700 5702 5705 5709 5712 5715 5715 5715 5717 5719 5720 5722 5725 5727 5730 5733 5737 5741 5745 5748 5750 5752 5754 5754 5756 5758 5757 5760 5764 5762 5763 5774 5781 5781 5780 5780 5781 5783 5783 5784 5785 5785 5787 5787 5788 5788 5788 5788
5549 5553 5554 5556 5559 5565 5572 5579 5584 5587 5590 5593 5597 5601 5605 5608 5612 5616 5620 5624 5629 5633 5637 5641 5644 5648 5651 5655 5658 5660 5663 5666 5669 5673 5676 5679 5682 5685 5687 5690 5693 5696 5700 5704 5707 5709 5709 5708 5711 5712 5713 5715 5718 5721 5727 5733 5736 5738 5741 5744 5746 5748 5749 5750 5752 5752 5753 5758 5760 5758 5763 5772 5775 5775 5775 5774 5776 5778 5778 5779 5779 5780 5780 5781 5781 5782 5782 5782
5544 5547 5550 5551 5555 5561 5568 5574 5578 5581 5585 5590 5594 5597 5601 5604 5608 5612 5615 5619 5623 5628 5632 5635 5639 5642 5645 5649 5652 5655 5658 5662 5664 5667 5671 5675 5677 5679 5681 5684 5687 5690 5693 5696 5699 5700 5700 5701 5704 5706 5708 5712 5717 5723 5728 5731 5732 5733 5737 5741 5742 5743 5745 5746 5746 5746 5751 5754 5753 5756 5763 5767 5768 5769 5769 5768 5770 5772 5772 5773 5772 5773 5774 5774 5774 5775 5776 5777
5538 5542 5545 5547 5550 5556 5563 5568 5573 5576 5581 5585 5588 5592 5596 5600 5604 5607 5611 5615 5619 5623 5626 5629 5633 5636 5640 5644 5648 5651 5654 5656 5658 5662 5666 5669 5671 5674 5676 5678 5681 5683 5686 5689 5691 5692 5692 5693 5697 5701 5705 5710 5715 5718 5721 5723 5724 5727 5731 5733 5735 5737 5738 5738 5738 5743 5748 5746 5746 5754 5759 5759 5761 5764 5763 5763 5764 5764 5765 5766 5766 5766 5767 5768 5768 5769 5771 5772
5532 5536 5541 5543 5546 5553 5559 5564 5568 5572 5575 5579 5583 5587 5590 5594 5599 5603 5607 5611 5614 5618 5620 5623 5627 5632 5636 5639 5642 5645 5648 5650 5653 5657 5660 5663 5666 5668 5670 5673 5675 5677 5680 5682 5683 5685 5686 5688 5693 5697 5701 5706 5709 5710 5713 5716 5718 5721 5723 5724 5727 5729 5729 5730 5733 5738 5740 5737 5741 5751 5753 5751 5755 5757 5757 5758 5758 5757 5759 5760 5760 5761 5761 5762 5763 5764 5765 5766
5528 5532 5536 5539 5543 5550 5557 5561 5564 5566 5569 5573 5576 5580 5584 5589 5594 5598 5603 5606 5609 5612 5615 5619 5623 5628 5631 5633 5636 5639 5642 5645 5649 5652 5655 5657 5660 5662 5665 5667 5669 5672 5674 5675 5677 5679 5680 5683 5689 5693 5695 5700 5702 5704 5707 5710 5711 5714 5716 5718 5721 5722 5723 5725 5728 5732 5733 5732 5740 5746 5745 5746 5751 5753 5754 5754 5752 5753 5754 5754 5755 5756 5756 5757 5758 5757 5758 5758
5523 5527 5530 5534 5539 5546 5551 5554 5558 5561 5564 5567 5571 5575 5580 5584 5589 5593 5597 5601 5604 5607 5610 5615 5619 5622 5625 5627 5629 5633 5638 5642 5645 5647 5649 5651 5654 5657 5659 5661 5664 5667 5668 5670 5672 5672 5674 5679 5684 5687 5689 5692 5695 5698 5701 5702 5704 5707 5709 5711 5714 5715 5718 5720 5723 5728 5727 5729 5736 5739 5737 5742 5748 5750 5752 5750 5748 5749 5749 5747 5749 5749 5749 5750 5750 5750 5750 5750
5519 5522 5525 5529 5534 5539 5544 5547 5552 5555 5557 5561 5566 5570 5575 5579 5584 5588 5592 5596 5599 5602 5606 5610 5613 5616 5618 5620 5623 5628 5634 5637 5638 5640 5643 5645 5648 5652 5654 5656 5659 5661 5663 5665 5666 5667 5670 5673 5677 5681 5680 5683 5689 5693 5693 5695 5697 5696 5698 5703 5707 5710 5713 5717 5721 5724 5723 5726 5732 5731 5731 5739 5746 5747 5747 5745 5744 5744 5742 5741 5741 5742 5741 5742 5741 5742 5742 5743
5515 5518 5521 5524 5528 5533 5538 5542 5546 5548 5551 5556 5561 5565 5569 5574 5579 5582 5585 5590 5594 5597 5600 5603 5606 5608 5610 5613 5619 5624 5627 5629 5631 5633 5635 5637 5640 5644 5646 5649 5652 5654 5657 5659 5661 5663 5665 5667 5671 5673 5672 5677 5684 5685 5686 5689 5683 5680 5689 5701 5705 5708 5712 5714 5716 5718 5719 5721 5723 5724 5729 5737 5739 5739 5739 5738 5737 5738 5736 5735 5734 5733 5734 5733 5733 5734 5735 5735